Regional Weather Roundup
Issued by NWS Burlington, VT

Home | Current Version | Previous Version | Text Only | Print | Product List | Glossary On
Versions: 1 2 3 4 5 6 7 8 9 10 11 12 13 14 15 16 17 18 19 20 21 22 23 24 25 26 27 28 29 30 31 32 33 34 35 36 37 38 39 40 41 42 43 44 45 46 47 48 49 50
000
ASUS41 KBTV 261110
RWRBTV
VERMONT REGIONAL WEATHER ROUNDUP
NATIONAL WEATHER SERVICE BURLINGTON VT
600 AM EST MON JAN 26 2015

NOTE: "FAIR" INDICATES FEW OR NO CLOUDS BELOW 12,000 FEET WITH NO
SIGNIFICANT WEATHER AND/OR OBSTRUCTIONS TO VISIBILITY.

* THESE REPORTS ARE NOT UNDER NWS QUALITY CONTROL AND/OR DO NOT
  REPORT WEATHER SUCH AS PRECIPITATION AND FOG.

VTZ001>019-261200-
_____VERMONT_____


CITY           SKY/WX    TMP DP  RH WIND       PRES   REMARKS
BURLINGTON     MOSUNNY   -2  -8  76 E8        30.15S
MONTPELIER     MOSUNNY  -10 -14  82 S3        30.10R
MORRISVILLE    FAIR     -13 -20  71 CALM      30.14R
ST. JOHNSBURY*   N/A    -11 -16  78 MISG      30.12S
MIDDLEBURY*    FAIR      -1  -7  77 CALM      30.12R
RUTLAND*       MOSUNNY   -2  -6  84 E7        30.08R
SPRINGFIELD    PTSUNNY    1  -4  79 CALM      30.12R
HIGHGATE*      FAIR      -8 -13  82 SE3       30.17S
NEWPORT*       FAIR     -15 -19  82 CALM      30.11R
BENNINGTON     PTSUNNY    7  -4  60 NE7       30.04S
SUTTON*          N/A    -11 N/A N/A MISG        N/A

_____LAKE CHAMPLAIN_____


CITY           SKY/WX    TMP DP  RH WIND       PRES   REMARKS

$$

NYZ007-026>031-035-052-083-261200-
_____NORTHERN NEW YORK_____


CITY           SKY/WX    TMP DP  RH WIND       PRES   REMARKS
PLATTSBURGH    MOSUNNY   -2  -8  76 W3        30.16R
SARANAC LAKE   MOSUNNY  -22 -27  77 CALM      29.95S
MASSENA        MOSUNNY  -13 -19  75 CALM      30.17S
OGDENSBURG*    SUNNY     -8  -9  92 NE3       30.13R
POTSDAM*       SUNNY    -13 -17  84 CALM      30.13R
WATERTOWN      PTSUNNY    0  -8  69 NE12      30.09S WCI -17
FT DRUM        MOSUNNY   -7 -12  78 E7        30.05F
ALBANY         CLOUDY    10  -2  58 N8        30.10F
GLENS FALLS    PTSUNNY    4  -2  76 N3        30.13R

$$
NHZ002-005-011-261200-
_____NEW HAMPSHIRE_____


CITY           SKY/WX    TMP DP  RH WIND       PRES   REMARKS
LEBANON        MOSUNNY   -2  -6  83 CALM      30.13R
KEENE          PTSUNNY    7  -2  66 N5        30.09R
MT WASHINGTON  PTSUNNY    3 -44   9 NW22        N/A  WCI -19
PLYMOUTH       FAIR       3  -2  79 NW3       30.11R
WHITEFIELD     PTSUNNY  -14 -19  79 CALM      30.08R

$$

_____REGIONAL QUEBEC LOCATIONS_____


CITY           SKY/WX    TMP DP  RH WIND       PRES   REMARKS
MONTREAL       SUNNY     -4  -9  77 N3        30.19R
QUEBEC CITY    SUNNY    -11 -17  77 W6        30.14R
SHERBROOKE     SUNNY    -18 -22  83 E2        30.13R

_____REGIONAL ONTARIO LOCATIONS_____


CITY           SKY/WX    TMP DP  RH WIND       PRES   REMARKS
OTTAWA         SUNNY     -9 -13  84 NW2       30.15S

______KEY______
VSB  - VISIBILITY IN MILES
WCI  - WIND CHILL INDEX
HX   - HEAT INDEX
$$
NNNN



USA.gov is the U.S. government's official web portal to all federal, state and local government web resources and services.